,,Stat6,,Stat2,,Stat8,,Stat9,,Stat10,,Wind1,,Wind1,
time,status,PA1M_AVG,status,PR1M_SUM,status,RH1M_AVG,status,SR1M_AVG,status,TA1M_AVG,status,W1dAve1m,status,W1sAve1m,
2006-02-21, 00:00:00,VALID,916.733,VALID,0,VALID,94.7447,VALID,0.0509425,VALID,20.9176,VALID,118,VALID,2.52567,
2006-02-21, 00:01:00,VALID,916.726,VALID,0,VALID,94.6786,VALID,0.0169808,VALID,20.9378,VALID,117,VALID,1.95126,
2006-02-21, 00:02:00,VALID,916.702,VALID,0,VALID,94.6582,VALID,0.0509425,VALID,20.9542,VALID,118,VALID,2.13535,
2006-02-21, 00:03:00,VALID,916.682,VALID,0,VALID,94.7854,VALID,0.0169808,VALID,20.9345,VALID,129,VALID,1.93006,
2006-02-21, 00:04:00,VALID,916.674,VALID,0,VALID,94.8884,VALID,0.0339617,VALID,20.9184,VALID,130,VALID,1.92839,
2006-02-21, 00:05:00,VALID,916.665,VALID,0,VALID,94.9494,VALID,0.0169808,VALID,20.9149,VALID,127,VALID,2.72988,
2006-02-21, 00:06:00,VALID,916.675,VALID,0,VALID,94.882,VALID,0.0339617,VALID,20.9442,VALID,138,VALID,2.31745,
2006-02-21, 00:07:00,VALID,916.675,VALID,0,VALID,94.8693,VALID,0.0339617,VALID,20.9539,VALID,136,VALID,2.00963,
2006-02-21, 00:08:00,VALID,916.678,VALID,0,VALID,94.9113,VALID,0.0849042,VALID,20.9539,VALID,135,VALID,1.73438,
2006-02-21, 00:09:00,VALID,916.688,VALID,0,VALID,94.9914,VALID,0,VALID,20.9348,VALID,134,VALID,2.04501,
2006-02-21, 00:10:00,VALID,916.677,VALID,0,VALID,95.1071,VALID,0,VALID,20.9084,VALID,126,VALID,1.59038,
2006-02-21, 00:11:00,VALID,916.65,VALID,0,VALID,95.247,VALID,0.0509425,VALID,20.8893,VALID,125,VALID,1.69713,
2006-02-21, 00:12:00,VALID,916.644,VALID,0,VALID,95.3271,VALID,0.0509425,VALID,20.8734,VALID,128,VALID,1.25428,
2006-02-21, 00:13:00,VALID,916.585,VALID,0,VALID,95.3869,VALID,0.0509425,VALID,20.8537,VALID,136,VALID,1.4306,
2006-02-21, 00:14:00,VALID,916.565,VALID,0,VALID,95.3881,VALID,0.0679233,VALID,20.8338,VALID,134,VALID,1.80526,
2006-02-21, 00:15:00,VALID,916.528,VALID,0,VALID,95.2648,VALID,0.0169808,VALID,20.847,VALID,141,VALID,1.5149,
2006-02-21, 00:16:00,VALID,916.529,VALID,0,VALID,95.1987,VALID,0.0169808,VALID,20.8599,VALID,140,VALID,1.95592,
2006-02-21, 00:17:00,VALID,916.526,VALID,0,VALID,95.0474,VALID,0.0339617,VALID,20.8992,VALID,141,VALID,2.22199,
2006-02-21, 00:18:00,VALID,916.535,VALID,0,VALID,94.8159,VALID,0.0679233,VALID,20.9246,VALID,129,VALID,1.86833,
2006-02-21, 00:19:00,VALID,916.574,VALID,0,VALID,94.7511,VALID,0,VALID,20.938,VALID,118,VALID,1.45536,
2006-02-21, 00:20:00,VALID,916.591,VALID,0,VALID,94.7612,VALID,0.0679233,VALID,20.931,VALID,117,VALID,1.22898,
2006-02-21, 00:21:00,VALID,916.58,VALID,0,VALID,94.7994,VALID,0.0339617,VALID,20.9186,VALID,115,VALID,1.79211,
2006-02-21, 00:22:00,VALID,916.577,VALID,0,VALID,94.8159,VALID,0.0339617,VALID,20.9154,VALID,117,VALID,1.35566,
2006-02-21, 00:23:00,VALID,916.575,VALID,0,VALID,94.8083,VALID,0,VALID,20.9219,VALID,125,VALID,1.89635,
2006-02-21, 00:24:00,VALID,916.566,VALID,0,VALID,94.5845,VALID,0,VALID,20.9412,VALID,131,VALID,2.16842,
2006-02-21, 00:25:00,VALID,916.576,VALID,0,VALID,94.4942,VALID,0.0339617,VALID,20.9507,VALID,72,VALID,1.31722,
2006-02-21, 00:26:00,VALID,916.57,VALID,0,VALID,94.6671,VALID,0.0169808,VALID,20.9512,VALID,113,VALID,1.69371,
2006-02-21, 00:27:00,VALID,916.558,VALID,0,VALID,94.6659,VALID,0.0509425,VALID,20.9445,VALID,135,VALID,1.75248,
2006-02-21, 00:28:00,VALID,916.553,VALID,0,VALID,94.5781,VALID,0.0169808,VALID,20.951,VALID,115,VALID,1.60174,
2006-02-21, 00:29:00,VALID,916.56,VALID,0,VALID,94.5336,VALID,0.0169808,VALID,20.9709,VALID,93,VALID,1.0877,
2006-02-21, 00:30:00,VALID,916.579,VALID,0,VALID,94.6265,VALID,0,VALID,20.945,VALID,103,VALID,1.0055,
2006-02-21, 00:31:00,VALID,916.581,VALID,0,VALID,94.8503,VALID,0.0509425,VALID,20.9219,VALID,96,VALID,1.48136,
2006-02-21, 00:32:00,VALID,916.59,VALID,0,VALID,94.9393,VALID,0.0339617,VALID,20.9318,VALID,102,VALID,1.2954,
2006-02-21, 00:33:00,VALID,916.605,VALID,0,VALID,95.0232,VALID,0.0169808,VALID,20.9119,VALID,104,VALID,1.625,
2006-02-21, 00:34:00,VALID,916.586,VALID,0,VALID,95.0626,VALID,0.0509425,VALID,20.9318,VALID,91,VALID,1.79306,
2006-02-21, 00:35:00,VALID,916.584,VALID,0,VALID,94.9151,VALID,0.0339617,VALID,20.9612,VALID,105,VALID,1.36186,
2006-02-21, 00:36:00,VALID,916.566,VALID,0,VALID,94.8248,VALID,0.0169808,VALID,20.9539,VALID,124,VALID,1.6498,
2006-02-21, 00:37:00,VALID,916.536,VALID,0,VALID,94.7053,VALID,0,VALID,20.9703,VALID,123,VALID,1.617,
2006-02-21, 00:38:00,VALID,916.539,VALID,0,VALID,94.5324,VALID,0.0339617,VALID,20.9992,VALID,116,VALID,1.91006,
2006-02-21, 00:39:00,VALID,916.532,VALID,0,VALID,94.5374,VALID,0,VALID,21.0423,VALID,111,VALID,1.35312,
2006-02-21, 00:40:00,VALID,916.531,VALID,0,VALID,94.5947,VALID,0.0169808,VALID,21.032,VALID,121,VALID,1.66371,
2006-02-21, 00:41:00,VALID,916.511,VALID,0,VALID,94.6659,VALID,0.0169808,VALID,21.0194,VALID,137,VALID,1.69773,
2006-02-21, 00:42:00,VALID,916.478,VALID,0,VALID,94.6481,VALID,0.0169808,VALID,21.0315,VALID,134,VALID,2.31993,
2006-02-21, 00:43:00,VALID,916.455,VALID,0,VALID,94.4344,VALID,-0.0169808,VALID,21.077,VALID,126,VALID,1.95313,
2006-02-21, 00:44:00,VALID,916.433,VALID,0,VALID,94.4726,VALID,0.0169808,VALID,21.0929,VALID,128,VALID,1.5903,
2006-02-21, 00:45:00,VALID,916.396,VALID,0,VALID,94.4141,VALID,0.0679233,VALID,21.1026,VALID,138,VALID,1.88653,
2006-02-21, 00:46:00,VALID,916.362,VALID,0,VALID,94.3098,VALID,0.0509425,VALID,21.1126,VALID,130,VALID,1.82639,
2006-02-21, 00:47:00,VALID,916.344,VALID,0,VALID,94.1649,VALID,0,VALID,21.122,VALID,119,VALID,1.86191,
2006-02-21, 00:48:00,VALID,916.336,VALID,0,VALID,94.0148,VALID,0.0169808,VALID,21.1121,VALID,123,VALID,2.10518,
2006-02-21, 00:49:00,VALID,916.296,VALID,0,VALID,93.9131,VALID,0.0169808,VALID,21.135,VALID,122,VALID,1.80729,
2006-02-21, 00:50:00,VALID,916.298,VALID,0,VALID,93.8953,VALID,0.0339617,VALID,21.1282,VALID,119,VALID,1.84108,
2006-02-21, 00:51:00,VALID,916.26,VALID,0,VALID,93.8838,VALID,0.0339617,VALID,21.1317,VALID,117,VALID,1.83049,
2006-02-21, 00:52:00,VALID,916.249,VALID,0,VALID,93.7796,VALID,0,VALID,21.1223,VALID,110,VALID,1.73233,
2006-02-21, 00:53:00,VALID,916.217,VALID,0,VALID,93.791,VALID,0.0169808,VALID,21.1153,VALID,109,VALID,1.47526,
2006-02-21, 00:54:00,VALID,916.21,VALID,0,VALID,93.7821,VALID,0.0509425,VALID,21.0959,VALID,113,VALID,1.85557,
2006-02-21, 00:55:00,VALID,916.19,VALID,0,VALID,93.8609,VALID,0.0169808,VALID,21.0803,VALID,108,VALID,1.57775,
2006-02-21, 00:56:00,VALID,916.188,VALID,0,VALID,94.0212,VALID,0.0169808,VALID,21.0412,VALID,92,VALID,1.24316,
2006-02-21, 00:57:00,VALID,916.179,VALID,0,VALID,94.1865,VALID,0.0169808,VALID,21.0027,VALID,89,VALID,1.24805,
2006-02-21, 00:58:00,VALID,916.185,VALID,0,VALID,94.3899,VALID,0.0339617,VALID,20.9639,VALID,94,VALID,1.21265,
2006-02-21, 00:59:00,VALID,916.175,VALID,0,VALID,94.5654,VALID,-0.0169808,VALID,20.9151,VALID,88,VALID,1.33501,
2006-02-21, 01:00:00,VALID,916.177,VALID,0,VALID,94.7002,VALID,0,VALID,20.8992,VALID,105,VALID,1.26163,
2006-02-21, 01:01:00,VALID,916.151,VALID,0,VALID,94.8553,VALID,0.0169808,VALID,20.8771,VALID,114,VALID,1.52998,
2006-02-21, 01:02:00,VALID,916.134,VALID,0,VALID,94.9774,VALID,0.0169808,VALID,20.8505,VALID,119,VALID,1.72191,
2006-02-21, 01:03:00,VALID,916.107,VALID,0,VALID,94.9952,VALID,0.0169808,VALID,20.8609,VALID,115,VALID,1.57946,
2006-02-21, 01:04:00,VALID,916.091,VALID,0,VALID,94.9863,VALID,0.0169808,VALID,20.8542,VALID,115,VALID,1.82849,
2006-02-21, 01:05:00,VALID,916.08,VALID,0,VALID,94.938,VALID,0,VALID,20.8741,VALID,109,VALID,1.70685,
2006-02-21, 01:06:00,VALID,916.06,VALID,0,VALID,94.9685,VALID,0.0169808,VALID,20.8577,VALID,103,VALID,1.50545,
2006-02-21, 01:07:00,VALID,916.055,VALID,0,VALID,95.0702,VALID,0,VALID,20.8612,VALID,109,VALID,1.43731,
2006-02-21, 01:08:00,VALID,916.025,VALID,0,VALID,95.186,VALID,0.0169808,VALID,20.8319,VALID,105,VALID,1.47313,
2006-02-21, 01:09:00,VALID,916.014,VALID,0,VALID,95.3297,VALID,0.0339617,VALID,20.8084,VALID,110,VALID,1.69132,
2006-02-21, 01:10:00,VALID,915.978,VALID,0,VALID,95.4835,VALID,0.0169808,VALID,20.7863,VALID,114,VALID,1.95859,
2006-02-21, 01:11:00,VALID,915.944,VALID,0,VALID,95.4848,VALID,0.0339617,VALID,20.7796,VALID,114,VALID,1.73952,
2006-02-21, 01:12:00,VALID,915.938,VALID,0,VALID,95.4276,VALID,0,VALID,20.7828,VALID,105,VALID,1.47837,
2006-02-21, 01:13:00,VALID,915.919,VALID,0,VALID,95.4911,VALID,0.0169808,VALID,20.7863,VALID,106,VALID,1.28374,
2006-02-21, 01:14:00,VALID,915.912,VALID,0,VALID,95.6056,VALID,0.0169808,VALID,20.7637,VALID,96,VALID,1.23619,
2006-02-21, 01:15:00,VALID,915.905,VALID,0,VALID,95.6946,VALID,0,VALID,20.7443,VALID,86,VALID,1.21615,
2006-02-21, 01:16:00,VALID,915.892,VALID,0,VALID,95.7531,VALID,0.0169808,VALID,20.7281,VALID,96,VALID,1.02273,
2006-02-21, 01:17:00,VALID,915.881,VALID,0,VALID,95.9616,VALID,0.0169808,VALID,20.7214,VALID,104,VALID,1.29263,
2006-02-21, 01:18:00,VALID,915.88,VALID,0,VALID,96.0392,VALID,0.0169808,VALID,20.7349,VALID,99,VALID,1.53664,
2006-02-21, 01:19:00,VALID,915.886,VALID,0,VALID,95.9667,VALID,0.0169808,VALID,20.7411,VALID,104,VALID,1.28786,
2006-02-21, 01:20:00,VALID,915.882,VALID,0,VALID,95.9883,VALID,0.0169808,VALID,20.7481,VALID,100,VALID,1.57717,
2006-02-21, 01:21:00,VALID,915.897,VALID,0,VALID,95.9896,VALID,0.0339617,VALID,20.7179,VALID,102,VALID,1.44141,
2006-02-21, 01:22:00,VALID,915.889,VALID,0,VALID,96.1765,VALID,0,VALID,20.7149,VALID,105,VALID,1.67778,
2006-02-21, 01:23:00,VALID,915.878,VALID,0,VALID,96.3101,VALID,0.0169808,VALID,20.7085,VALID,113,VALID,1.78746,
2006-02-21, 01:24:00,VALID,915.876,VALID,0,VALID,96.3584,VALID,0.0339617,VALID,20.699,VALID,116,VALID,1.62176,
2006-02-21, 01:25:00,VALID,915.877,VALID,0,VALID,96.3596,VALID,-0.0849042,VALID,20.7068,VALID,113,VALID,2.00799,
2006-02-21, 01:26:00,VALID,915.882,VALID,0,VALID,96.2732,VALID,-0.101885,VALID,20.713,VALID,118,VALID,1.78068,
2006-02-21, 01:27:00,VALID,915.883,VALID,0,VALID,96.4919,VALID,-0.135847,VALID,20.7232,VALID,124,VALID,1.8298,
2006-02-21, 01:28:00,VALID,915.895,VALID,0,VALID,96.4906,VALID,-0.101885,VALID,20.7335,VALID,118,VALID,1.67406,
2006-02-21, 01:29:00,VALID,915.894,VALID,0,VALID,96.5135,VALID,-0.101885,VALID,20.7389,VALID,117,VALID,1.63161,
2006-02-21, 01:30:00,VALID,915.881,VALID,0,VALID,96.4474,VALID,-0.0679233,VALID,20.7526,VALID,114,VALID,1.40454,
2006-02-21, 01:31:00,VALID,915.873,VALID,0,VALID,96.4118,VALID,-0.101885,VALID,20.7418,VALID,124,VALID,1.60556,
2006-02-21, 01:32:00,VALID,915.856,VALID,0,VALID,96.3062,VALID,-0.0849042,VALID,20.768,VALID,114,VALID,0.913336,
2006-02-21, 01:33:00,VALID,915.845,VALID,0,VALID,96.2312,VALID,-0.0849042,VALID,20.7847,VALID,130,VALID,1.08239,
2006-02-21, 01:34:00,VALID,915.848,VALID,0,VALID,96.2058,VALID,-0.101885,VALID,20.7946,VALID,114,VALID,0.865854,
2006-02-21, 01:35:00,VALID,915.828,VALID,0,VALID,96.2795,VALID,-0.118866,VALID,20.7782,VALID,110,VALID,0.716273,
2006-02-21, 01:36:00,VALID,915.806,VALID,0,VALID,96.3177,VALID,-0.118866,VALID,20.7752,VALID,93,VALID,0.56436,
2006-02-21, 01:37:00,VALID,915.796,VALID,0,VALID,96.3406,VALID,-0.101885,VALID,20.7583,VALID,108,VALID,0.868096,
2006-02-21, 01:38:00,VALID,915.778,VALID,0,VALID,96.4105,VALID,0,VALID,20.7575,VALID,118,VALID,1.1529,
2006-02-21, 01:39:00,VALID,915.754,VALID,0,VALID,96.4372,VALID,-0.0339617,VALID,20.7473,VALID,109,VALID,0.96503,
2006-02-21, 01:40:00,VALID,915.742,VALID,0,VALID,96.4029,VALID,0,VALID,20.7508,VALID,112,VALID,0.940549,
2006-02-21, 01:41:00,VALID,915.733,VALID,0,VALID,96.4016,VALID,0,VALID,20.7572,VALID,127,VALID,1.0522,
2006-02-21, 01:42:00,VALID,915.723,VALID,0,VALID,96.4321,VALID,0,VALID,20.7739,VALID,122,VALID,1.29931,
2006-02-21, 01:43:00,VALID,915.719,VALID,0,VALID,96.4385,VALID,0,VALID,20.7804,VALID,131,VALID,1.08175,
2006-02-21, 01:44:00,VALID,915.704,VALID,0,VALID,96.4398,VALID,0,VALID,20.7901,VALID,112,VALID,0.779615,
2006-02-21, 01:45:00,VALID,915.689,VALID,0,VALID,96.4728,VALID,0.0169808,VALID,20.7863,VALID,111,VALID,0.895089,
2006-02-21, 01:46:00,VALID,915.683,VALID,0,VALID,96.5135,VALID,0,VALID,20.7696,VALID,105,VALID,0.959498,
2006-02-21, 01:47:00,VALID,915.679,VALID,0,VALID,96.5351,VALID,-0.0169808,VALID,20.7903,VALID,102,VALID,0.866443,
2006-02-21, 01:48:00,VALID,915.676,VALID,0,VALID,96.5847,VALID,0.0169808,VALID,20.7801,VALID,117,VALID,0.918527,
2006-02-21, 01:49:00,VALID,915.666,VALID,0,VALID,96.5555,VALID,0,VALID,20.7766,VALID,93,VALID,0.924893,
2006-02-21, 01:50:00,VALID,915.669,VALID,0,VALID,96.497,VALID,0,VALID,20.7968,VALID,103,VALID,1.14698,
2006-02-21, 01:51:00,VALID,915.682,VALID,0,VALID,96.4512,VALID,0.0339617,VALID,20.8025,VALID,84,VALID,0.925223,
2006-02-21, 01:52:00,VALID,915.69,VALID,0,VALID,96.4042,VALID,0.0169808,VALID,20.8065,VALID,82,VALID,0.683594,
2006-02-21, 01:53:00,VALID,915.687,VALID,0,VALID,96.427,VALID,0,VALID,20.8025,VALID,74,VALID,0.848292,
2006-02-21, 01:54:00,VALID,915.703,VALID,0,VALID,96.4601,VALID,-0.0339617,VALID,20.7931,VALID,92,VALID,0.903092,
2006-02-21, 01:55:00,VALID,915.709,VALID,0,VALID,96.5428,VALID,0.0169808,VALID,20.7796,VALID,96,VALID,1.23438,
2006-02-21, 01:56:00,VALID,915.733,VALID,0,VALID,96.5974,VALID,0.0339617,VALID,20.7836,VALID,90,VALID,1.39515,
2006-02-21, 01:57:00,VALID,915.739,VALID,0,VALID,96.6267,VALID,-0.0169808,VALID,20.7836,VALID,90,VALID,1.24049,
2006-02-21, 01:58:00,VALID,915.754,VALID,0,VALID,96.6839,VALID,0.0339617,VALID,20.7731,VALID,91,VALID,1.26308,
2006-02-21, 01:59:00,VALID,915.755,VALID,0,VALID,96.7132,VALID,0,VALID,20.7893,VALID,85,VALID,1.01182,
2006-02-21, 02:00:00,VALID,915.766,VALID,0,VALID,96.6992,VALID,0,VALID,20.8022,VALID,87,VALID,1.6224,
2006-02-21, 02:01:00,VALID,915.759,VALID,0,VALID,96.5161,VALID,0,VALID,20.8507,VALID,103,VALID,1.17649,
2006-02-21, 02:02:00,VALID,915.757,VALID,0,VALID,96.3914,VALID,0.0169808,VALID,20.8803,VALID,112,VALID,1.1888,
2006-02-21, 02:03:00,VALID,915.752,VALID,0,VALID,96.3101,VALID,0.0169808,VALID,20.8995,VALID,77,VALID,1.06269,
2006-02-21, 02:04:00,VALID,915.753,VALID,0,VALID,96.2427,VALID,0.0169808,VALID,20.9154,VALID,71,VALID,0.775174,
2006-02-21, 02:05:00,VALID,915.737,VALID,0,VALID,96.2121,VALID,-0.0169808,VALID,20.9186,VALID,96,VALID,0.630766,
2006-02-21, 02:06:00,VALID,915.719,VALID,0,VALID,96.2223,VALID,0,VALID,20.9151,VALID,104,VALID,0.672763,
2006-02-21, 02:07:00,VALID,915.693,VALID,0,VALID,96.2172,VALID,0.0169808,VALID,20.9084,VALID,114,VALID,1.04154,
2006-02-21, 02:08:00,VALID,915.676,VALID,0,VALID,96.221,VALID,-0.0169808,VALID,20.9084,VALID,127,VALID,1.17092,
2006-02-21, 02:09:00,VALID,915.633,VALID,0,VALID,96.216,VALID,0.0169808,VALID,20.9189,VALID,123,VALID,1.11719,
2006-02-21, 02:10:00,VALID,915.613,VALID,0,VALID,96.1587,VALID,0.0339617,VALID,20.9313,VALID,129,VALID,1.29762,
2006-02-21, 02:11:00,VALID,915.578,VALID,0,VALID,96.1244,VALID,0.0509425,VALID,20.9442,VALID,131,VALID,1.21855,
2006-02-21, 02:12:00,VALID,915.55,VALID,0,VALID,96.132,VALID,0.0169808,VALID,20.941,VALID,135,VALID,1.50248,
2006-02-21, 02:13:00,VALID,915.521,VALID,0,VALID,96.1346,VALID,0.0339617,VALID,20.9281,VALID,139,VALID,1.42151,
2006-02-21, 02:14:00,VALID,915.501,VALID,0,VALID,96.1244,VALID,0.0679233,VALID,20.9251,VALID,138,VALID,1.66789,
2006-02-21, 02:15:00,VALID,915.477,VALID,0,VALID,96.16,VALID,0.0679233,VALID,20.9122,VALID,153,VALID,0.782366,
2006-02-21, 02:16:00,VALID,915.459,VALID,0,VALID,96.1918,VALID,0.0679233,VALID,20.8957,VALID,140,VALID,0.72061,
2006-02-21, 02:17:00,VALID,915.451,VALID,0,VALID,96.2719,VALID,0,VALID,20.8734,VALID,155,VALID,0.643466,
2006-02-21, 02:18:00,VALID,915.453,VALID,0,VALID,96.3546,VALID,0,VALID,20.854,VALID,140,VALID,0.59189,
2006-02-21, 02:19:00,VALID,915.457,VALID,0,VALID,96.5059,VALID,0.0169808,VALID,20.8346,VALID,122,VALID,0.867369,
2006-02-21, 02:20:00,VALID,915.461,VALID,0,VALID,96.661,VALID,0.0509425,VALID,20.8189,VALID,117,VALID,0.695884,
2006-02-21, 02:21:00,VALID,915.465,VALID,0,VALID,96.7475,VALID,0,VALID,20.802,VALID,123,VALID,0.858467,
2006-02-21, 02:22:00,VALID,915.468,VALID,0,VALID,96.7678,VALID,0.0339617,VALID,20.8028,VALID,128,VALID,0.679874,
2006-02-21, 02:23:00,VALID,915.462,VALID,0,VALID,96.7157,VALID,0.0339617,VALID,20.8025,VALID,168,VALID,0.436198,
2006-02-21, 02:24:00,VALID,915.451,VALID,0,VALID,96.6903,VALID,0.0339617,VALID,20.8055,VALID,169,VALID,0.185352,
2006-02-21, 02:25:00,VALID,915.443,VALID,0,VALID,96.6229,VALID,0.0169808,VALID,20.802,VALID,156,VALID,0.208939,
2006-02-21, 02:26:00,VALID,915.441,VALID,0,VALID,96.4932,VALID,0,VALID,20.789,VALID,234,VALID,0.597396,
2006-02-21, 02:27:00,VALID,915.422,VALID,0,VALID,96.511,VALID,0.0339617,VALID,20.7661,VALID,236,VALID,0.643043,
2006-02-21, 02:28:00,VALID,915.407,VALID,0,VALID,96.6013,VALID,0,VALID,20.7467,VALID,236,VALID,0.473586,
2006-02-21, 02:29:00,VALID,915.387,VALID,0,VALID,96.8276,VALID,0.0339617,VALID,20.7114,VALID,237,VALID,0.475521,
2006-02-21, 02:30:00,VALID,915.367,VALID,0,VALID,96.9598,VALID,0.0509425,VALID,20.6993,VALID,237,VALID,0.627604,
2006-02-21, 02:31:00,VALID,915.32,VALID,0,VALID,97.0984,VALID,0.0339617,VALID,20.6635,VALID,230,VALID,0.516533,
2006-02-21, 02:32:00,VALID,915.276,VALID,0,VALID,97.2193,VALID,0,VALID,20.6478,VALID,230,VALID,0.81875,
2006-02-21, 02:33:00,VALID,915.217,VALID,0,VALID,97.3159,VALID,0.0339617,VALID,20.6147,VALID,227,VALID,0.628374,
2006-02-21, 02:34:00,VALID,915.16,VALID,0,VALID,97.4024,VALID,0.0169808,VALID,20.5918,VALID,212,VALID,0.391868,
2006-02-21, 02:35:00,VALID,915.108,VALID,0,VALID,97.4011,VALID,0,VALID,20.5953,VALID,189,VALID,0.55957,
2006-02-21, 02:36:00,VALID,915.077,VALID,0,VALID,97.4075,VALID,0,VALID,20.5797,VALID,166,VALID,0.595526,
2006-02-21, 02:37:00,VALID,915.045,VALID,0,VALID,97.4507,VALID,0,VALID,20.5543,VALID,168,VALID,0.507267,
2006-02-21, 02:38:00,VALID,915.022,VALID,0,VALID,97.5791,VALID,0,VALID,20.5215,VALID,173,VALID,0.480196,
2006-02-21, 02:39:00,VALID,915.033,VALID,0,VALID,97.7088,VALID,0.0509425,VALID,20.5115,VALID,174,VALID,0.661701,
2006-02-21, 02:40:00,VALID,915.032,VALID,0,VALID,97.7978,VALID,0.0339617,VALID,20.5053,VALID,173,VALID,0.658594,
2006-02-21, 02:41:00,VALID,915.063,VALID,0,VALID,97.8373,VALID,0.0339617,VALID,20.4889,VALID,173,VALID,0.370046,
2006-02-21, 02:42:00,VALID,915.077,VALID,0,VALID,97.9008,VALID,0.0169808,VALID,20.4829,VALID,173,VALID,0.0245028,
2006-02-21, 02:43:00,VALID,915.092,VALID,0,VALID,97.9886,VALID,-0.0169808,VALID,20.4897,VALID,173,VALID,0,
2006-02-21, 02:44:00,VALID,915.097,VALID,0,VALID,98.0344,VALID,0,VALID,20.4698,VALID,168,VALID,0.580329,
2006-02-21, 02:45:00,VALID,915.087,VALID,0,VALID,97.9873,VALID,0,VALID,20.4474,VALID,7,VALID,0.906613,
2006-02-21, 02:46:00,VALID,915.067,VALID,0,VALID,98.0903,VALID,0.0169808,VALID,20.4076,VALID,8,VALID,0.419331,
2006-02-21, 02:47:00,VALID,915.054,VALID,0,VALID,98.2823,VALID,0.0509425,VALID,20.4054,VALID,8,VALID,0.418403,
2006-02-21, 02:48:00,VALID,915.03,VALID,0,VALID,98.384,VALID,0.0169808,VALID,20.3924,VALID,8,VALID,0.471058,
2006-02-21, 02:49:00,VALID,915.013,VALID,0,VALID,98.4731,VALID,-0.0169808,VALID,20.3957,VALID,8,VALID,0.0234375,
2006-02-21, 02:50:00,VALID,914.975,VALID,0,VALID,98.5672,VALID,-0.0169808,VALID,20.3922,VALID,8,VALID,0,
2006-02-21, 02:51:00,VALID,914.944,VALID,0,VALID,98.5265,VALID,0.0169808,VALID,20.379,VALID,8,VALID,0.0381324,
2006-02-21, 02:52:00,VALID,914.925,VALID,0,VALID,98.4781,VALID,0.0169808,VALID,20.3765,VALID,87,VALID,0.337109,
2006-02-21, 02:53:00,VALID,914.913,VALID,0,VALID,98.5735,VALID,0,VALID,20.3596,VALID,91,VALID,0.214558,
2006-02-21, 02:54:00,VALID,914.91,VALID,0,VALID,98.7134,VALID,0.0169808,VALID,20.3631,VALID,91,VALID,0.0197173,
2006-02-21, 02:55:00,VALID,914.904,VALID,0,VALID,98.7554,VALID,0.0169808,VALID,20.383,VALID,91,VALID,0.131541,
2006-02-21, 02:56:00,VALID,914.896,VALID,0,VALID,98.6867,VALID,0,VALID,20.3954,VALID,78,VALID,0.5627,
2006-02-21, 02:57:00,VALID,914.875,VALID,0,VALID,98.6473,VALID,-0.0339617,VALID,20.4024,VALID,76,VALID,0.524306,
2006-02-21, 02:58:00,VALID,914.857,VALID,0,VALID,98.6269,VALID,-0.0169808,VALID,20.4151,VALID,78,VALID,0.718572,
2006-02-21, 02:59:00,VALID,914.855,VALID,0,VALID,98.5646,VALID,0,VALID,20.4178,VALID,84,VALID,0.667151,
2006-02-21, 03:00:00,VALID,914.838,VALID,0,VALID,98.5214,VALID,0.0169808,VALID,20.428,VALID,95,VALID,0.740091,
2006-02-21, 03:01:00,VALID,914.813,VALID,0,VALID,98.5277,VALID,0.0169808,VALID,20.4275,VALID,100,VALID,0.827939,
2006-02-21, 03:02:00,VALID,914.793,VALID,0,VALID,98.5392,VALID,0.0509425,VALID,20.4412,VALID,112,VALID,1.09766,
2006-02-21, 03:03:00,VALID,914.774,VALID,0,VALID,98.5099,VALID,0.0169808,VALID,20.4506,VALID,113,VALID,0.937109,
2006-02-21, 03:04:00,VALID,914.755,VALID,0,VALID,98.5125,VALID,0.0339617,VALID,20.4598,VALID,122,VALID,1.42527,
2006-02-21, 03:05:00,VALID,914.737,VALID,0,VALID,98.5227,VALID,0.0339617,VALID,20.4859,VALID,128,VALID,1.00977,
2006-02-21, 03:06:00,VALID,914.705,VALID,0,VALID,98.4794,VALID,0,VALID,20.4994,VALID,133,VALID,1.47493,
2006-02-21, 03:07:00,VALID,914.682,VALID,0,VALID,98.4336,VALID,0,VALID,20.5088,VALID,130,VALID,1.44095,
2006-02-21, 03:08:00,VALID,914.682,VALID,0,VALID,98.3777,VALID,0,VALID,20.5314,VALID,136,VALID,1.49382,
2006-02-21, 03:09:01,VALID,914.669,VALID,0,VALID,98.3065,VALID,0.0509425,VALID,20.5376,VALID,137,VALID,1.31214,
2006-02-21, 03:10:00,VALID,914.652,VALID,0,VALID,98.2264,VALID,0,VALID,20.5541,VALID,137,VALID,1.00521,
2006-02-21, 03:11:00,VALID,914.664,VALID,0,VALID,98.1933,VALID,0.0169808,VALID,20.5705,VALID,137,VALID,1.20617,
2006-02-21, 03:12:00,VALID,914.655,VALID,0,VALID,98.1246,VALID,0,VALID,20.57,VALID,145,VALID,1.18075,
2006-02-21, 03:13:00,VALID,914.658,VALID,0,VALID,98.0979,VALID,0.0169808,VALID,20.577,VALID,134,VALID,0.998397,
2006-02-21, 03:14:00,VALID,914.638,VALID,0,VALID,98.0763,VALID,0.0339617,VALID,20.5829,VALID,127,VALID,1.4811,
2006-02-21, 03:15:00,VALID,914.646,VALID,0,VALID,98.0534,VALID,0.0339617,VALID,20.5799,VALID,121,VALID,1.30227,
2006-02-21, 03:16:01,VALID,914.626,VALID,0,VALID,98.042,VALID,0.0169808,VALID,20.5902,VALID,117,VALID,0.807422,
2006-02-21, 03:17:00,VALID,914.63,VALID,0,VALID,98.0026,VALID,0,VALID,20.5829,VALID,105,VALID,1.15698,
2006-02-21, 03:18:00,VALID,914.65,VALID,0,VALID,97.9568,VALID,0.0169808,VALID,20.5996,VALID,99,VALID,1.11755,
2006-02-21, 03:19:00,VALID,914.66,VALID,0,VALID,97.9339,VALID,0.0169808,VALID,20.6023,VALID,97,VALID,1.28196,
2006-02-21, 03:20:00,VALID,914.66,VALID,0,VALID,97.8919,VALID,0.0339617,VALID,20.6123,VALID,98,VALID,1.15358,
2006-02-21, 03:21:00,VALID,914.659,VALID,0,VALID,97.8449,VALID,0.0169808,VALID,20.6053,VALID,93,VALID,1.31157,
2006-02-21, 03:22:01,VALID,914.66,VALID,0,VALID,97.8233,VALID,0.0169808,VALID,20.5951,VALID,102,VALID,1.25874,
2006-02-21, 03:23:01,VALID,914.662,VALID,0,VALID,97.8029,VALID,0.0339617,VALID,20.5956,VALID,120,VALID,1.30977,
2006-02-21, 03:24:00,VALID,914.659,VALID,0,VALID,97.8004,VALID,0.0339617,VALID,20.5993,VALID,122,VALID,1.36646,
2006-02-21, 03:25:00,VALID,914.665,VALID,0,VALID,97.7673,VALID,0.0509425,VALID,20.5923,VALID,116,VALID,1.60229,
2006-02-21, 03:26:00,VALID,914.659,VALID,0,VALID,97.7482,VALID,0.0169808,VALID,20.615,VALID,114,VALID,1.23775,
2006-02-21, 03:27:01,VALID,914.654,VALID,0,VALID,97.616,VALID,0,VALID,20.615,VALID,123,VALID,1.31803,
2006-02-21, 03:28:00,VALID,914.661,VALID,0,VALID,97.5461,VALID,0.0509425,VALID,20.6187,VALID,126,VALID,1.31585,
2006-02-21, 03:29:01,VALID,914.68,VALID,0,VALID,97.5257,VALID,0.0169808,VALID,20.5986,VALID,111,VALID,1.29794,
2006-02-21, 03:30:01,VALID,914.706,VALID,0,VALID,97.4965,VALID,-0.0169808,VALID,20.6055,VALID,112,VALID,1.41616,
2006-02-21, 03:31:01,VALID,914.736,VALID,0,VALID,97.4774,VALID,0.0339617,VALID,20.5958,VALID,98,VALID,1.19252,
2006-02-21, 03:32:00,VALID,914.773,VALID,0,VALID,97.4672,VALID,0.0169808,VALID,20.6061,VALID,118,VALID,0.883594,
2006-02-21, 03:33:00,VALID,914.788,VALID,0,VALID,97.438,VALID,0,VALID,20.5923,VALID,129,VALID,1.2125,
2006-02-21, 03:34:00,VALID,914.806,VALID,0,VALID,97.4011,VALID,0.0339617,VALID,20.5926,VALID,135,VALID,1.14267,
2006-02-21, 03:35:00,VALID,914.823,VALID,0,VALID,97.3261,VALID,0.0339617,VALID,20.5991,VALID,137,VALID,1.38815,
2006-02-21, 03:36:00,VALID,914.841,VALID,0,VALID,97.2065,VALID,-0.0169808,VALID,20.6058,VALID,144,VALID,1.15508,